Regional Weather Roundup
Issued by NWS

Home | Current Version | Previous Version | Text Only | Print | Product List | Glossary On
Versions: 1 2 3 4 5 6 7 8 9 10 11 12 13 14 15 16 17 18 19 20 21 22 23 24 25 26 27 28 29 30 31 32 33 34 35 36 37 38 39 40 41 42 43 44 45 46 47 48 49 50
326
ASUS43 KTOP 240908
RWRKS

WEATHER ROUNDUP FOR KANSAS
NATIONAL WEATHER SERVICE GOODLAND KS
300 AM CST SAT FEB 24 2018

NOTE:  "FAIR" INDICATES FEW OR NO CLOUDS BELOW 12,000 FEET WITH NO
SIGNIFICANT WEATHER AND/OR OBSTRUCTIONS TO VISIBILITY.

KSZ001>006-013>018-027>032-041>047-241000-
NORTHWEST KANSAS

CITY           SKY/WX    TMP DP  RH WIND       PRES   REMARKS
GOODLAND       CLOUDY    25  24  96 CALM      29.90F FOG
HAYS           LGT SNOW  29  28  96 SE5       30.00S FOG
HILL CITY      CLOUDY    27  27 100 E8        30.01F FOG
RUSSELL        CLOUDY    32  31  96 E7        29.98F FOG
$$

KSZ061>065-074>080-084>089-241000-
SOUTHWEST KANSAS

CITY           SKY/WX    TMP DP  RH WIND       PRES   REMARKS
DODGE CITY     CLOUDY    28  26  92 NE6       29.95F FOG
ELKHART        CLOUDY    31  31 100 E3        29.89F FOG
GARDEN CITY    CLOUDY    27  26  96 CALM      29.94F FOG
GREAT BEND     CLOUDY    29  28  96 E7        29.98F
LIBERAL        MIX PCPN  29  28  96 NE7       29.93F FOG
PRATT          CLOUDY    30  29  96 NE6       29.96F FOG
$$

KSZ066>073-081>083-090>101-241000-
SOUTHEAST KANSAS

CITY           SKY/WX    TMP DP  RH WIND       PRES   REMARKS
CHANUTE        LGT RAIN  36  35  96 NE12      29.98F FOG     WCI  28
COFFEYVILLE    CLOUDY    38  38 100 N8        29.96F FOG
HUTCHINSON     CLOUDY    32  31  96 NE7       29.96F FOG
MEDICINE LODGE   N/A     31  31 100 CALM      29.97F
NEWTON         CLOUDY    31  30  96 E9        29.97F FOG
PARSONS        CLOUDY    37  37 100 NE5       29.98S FOG
WICHITA INTL   DRIZZLE   33  33 100 NE9       29.96F FOG
WICHITA JABRA  CLOUDY    32  32 100 NE9       29.97F FOG
WICHITA MCCONL CLOUDY   N/A N/A N/A NE7       29.97F
WINFIELD       CLOUDY    34  34 100 NE8       29.97F FOG
$$

KSZ007>012-019>026-033>040-048>060-102>105-241000-
NORTHEAST KANSAS

CITY           SKY/WX    TMP DP  RH WIND       PRES   REMARKS
CONCORDIA      CLOUDY    28  27  96 NE9       30.02F FOG
EMPORIA        CLOUDY    32  31  96 NE8       30.00F FOG
LAWRENCE       LGT RAIN  34  33  96 NE6       30.03F FOG
MANHATTAN      CLOUDY    33  31  92 NE8       30.02F FOG
MARYSVILLE     CLOUDY    30  30 100 E8        30.02F FOG
OLATHE IND     LGT RAIN  34  33  96 E9        30.01F FOG
OLATHE EXE     MIX PCPN  33  33 100 E12       30.00F FOG     WCI  24
SALINA         CLOUDY    33  32  96 NE7       30.02F FOG
TOPEKA BILLARD LGT RAIN  34  34 100 NE7       30.04F FOG
TOPEKA FORBES  CLOUDY    34  33  96 NE6       30.02F FOG
$$




USA.gov is the U.S. government's official web portal to all federal, state and local government web resources and services.